Flag for Greenland

Past Weather in Danmarkshavn, Greenland — Yesterday and Last 2 Weeks

Now
42 °F

Heavy rain. Overcast.


Feels Like: 38 °F
Forecast: 39 / 37 °F
Wind: 6 mph from Northwest

Location: Danmarkshavn

Current Time: Jul 6, 2020 at 9:56:57 am

Latest Report: Jul 6, 2020 at 8:00 am


Visibility: 6 mi

Pressure: 29.91 "Hg

Humidity: 85%

Dew Point: 38 °F

Location of DanmarkshavnLocation

Past Weather in Danmarkshavn — Graph

°F

Danmarkshavn Temperature Yesterday

Maximum temperature yesterday: 43 °F (at 8:00 pm)
Minimum temperature yesterday: 35 °F (at 4:00 am)
Average temperature yesterday: 39 °F

High & Low Weather Summary for the Past Weeks

 TemperatureHumidityPressure
High55 °F (Jun 21, 4:00 pm)100% (Jun 24, 10:00 pm)30.45 "Hg (Jun 24, 10:00 pm)
Low30 °F (Jun 28, 11:00 pm)35% (Jun 21, 5:00 pm)29.65 "Hg (Jul 4, 8:00 am)
Average39 °F81%29.99 "Hg
* Reported Jun 21 8:00 am — Jul 6 8:00 am, Danmarkshavn. Weather by CustomWeather, © 2020

Note: Actual official high and low records may vary slightly from our data, if they occured in-between our weather recording intervals... More about our weather records

Danmarkshavn Weather History for the Previous 24 Hours

Scroll right to see more
 ConditionsComfort  
Time TempWeatherWind HumidityBarometerVisibility
8:00 am
Mon, Jul 6
42 °FHeavy rain. Overcast.6 mph85%29.91 "Hg6 mi
7:00 am42 °FHeavy rain. Overcast.13 mph81%29.90 "Hg7 mi
6:00 am43 °FLight snow. Overcast.16 mph78%29.90 "Hg19 mi
5:00 am43 °FFog.10 mph75%29.92 "Hg25 mi
4:00 am43 °FOvercast.12 mph78%29.93 "Hg31 mi
3:00 am42 °FOvercast.14 mph75%29.94 "Hg31 mi
2:00 am42 °FOvercast.14 mph75%29.96 "Hg31 mi
1:00 am42 °FQuite cool.12 mph72%29.97 "Hg31 mi
12:00 am42 °FOvercast.15 mph74%29.97 "Hg31 mi
11:00 pm
Sun, Jul 5
43 °FOvercast.14 mph71%29.98 "Hg31 mi
10:00 pm43 °FOvercast.16 mph71%29.99 "Hg31 mi
9:00 pm43 °FOvercast.21 mph67%29.99 "Hg31 mi
8:00 pm43 °FPassing clouds.16 mph67%30.00 "Hg31 mi
7:00 pm43 °FPassing clouds.14 mph67%30.01 "Hg31 mi
6:00 pm43 °FPassing clouds.17 mph65%30.02 "Hg31 mi
5:00 pm42 °FOvercast.20 mph66%30.02 "Hg31 mi
4:00 pm43 °FOvercast.16 mph65%30.03 "Hg31 mi
3:00 pm42 °FQuite cool.14 mph64%30.05 "Hg31 mi
2:00 pm41 °FPartly sunny.7 mph78%30.05 "Hg28 mi
1:00 pm35 °FOvercast.5 mph90%30.06 "Hg28 mi
12:00 pm36 °FOvercast.5 mph89%30.06 "Hg31 mi
11:00 am36 °FOvercast.7 mph85%30.06 "Hg31 mi
10:00 am36 °FOvercast.10 mph88%30.05 "Hg31 mi
9:00 am37 °FOvercast.12 mph86%30.04 "Hg31 mi
Weather by CustomWeather, © 2020

See weather overview